Kimball, NE

4:28 PM MST on February 27, 2017 (GMT -0700)
Kimball Municipal-Arraj

Weather History for KIBM - November, 2012

Change the Weather History Date:

Wednesday, November 28, 2012

  Actual Average (KSNY) Record (KSNY)
Temperature  
Mean Temperature 40 °F -  
Max Temperature 59 °F 38 °F 67 °F (2014)
Min Temperature 21 °F 13 °F -8 °F (1952)
Degree Days  
Heating Degree Days 26    
Moisture  
Dew Point 12 °F    
Average Humidity 42    
Maximum Humidity 76    
Minimum Humidity 13    
Precipitation  
Precipitation 0.00 in - - ()
Sea Level Pressure  
Sea Level Pressure 30.11 in    
Wind  
Wind Speed 7 mph (WSW)    
Max Wind Speed 12 mph    
Max Gust Speed -    
Visibility 10 miles    
Events      
Averages and records for this station are not official NWS values.
T = Trace of Precipitation, MM = Missing Value Source: NWS Daily Summary

Daily Weather History Graph

Daily Weather History Graph

Search for Another Location

Airport or City:

Trip Planner

Search our weather history database for the weather conditions in past years. The results will help you decide how hot, cold, wet, or windy it might be!

Date:

Astronomy

Nov. 28, 2012 Rise Set
Actual Time 7:58 AM CST 5:27 PM CST
Civil Twilight 7:27 AM CST 5:57 PM CST
Nautical Twilight 6:53 AM CST 6:32 PM CST
Astronomical Twilight 6:20 AM CST 7:05 PM CST
Moon 5:44 PM CST (11/28) 7:57 AM CST (11/28)
Length of Visible Light 10h 30m
Length of Day
9h 29m
Full, 100% of the Moon is Illuminated
Nov 28
Full
Dec 6
Last Quarter
Dec 13
New
Dec 19
First Quarter
Dec 28
Full

Hourly Weather History & Observations

Time (CST) Temp. Windchill Dew Point Humidity Pressure Visibility Wind Dir Wind Speed Gust Speed Precip Events Conditions
12:15 AM 24.6 °F 17.7 °F 14.9 °F 67% 30.21 in 10.0 mi West 5.8 mph - N/A   Clear
12:55 AM 26.1 °F 15.6 °F 16.2 °F 66% 30.20 in 10.0 mi WSW 11.5 mph - N/A   Clear
1:15 AM 23.2 °F 15.0 °F 15.1 °F 71% 30.20 in 10.0 mi WSW 6.9 mph - N/A   Clear
1:35 AM 23.5 °F 13.7 °F 15.4 °F 71% 30.20 in 10.0 mi WSW 9.2 mph - N/A   Clear
1:55 AM 23.9 °F 16.8 °F 14.9 °F 69% 30.19 in 10.0 mi WSW 5.8 mph - N/A   Clear
2:15 AM 22.5 °F 15.1 °F 14.5 °F 72% 30.19 in 10.0 mi WNW 5.8 mph - N/A   Clear
2:35 AM 21.2 °F 10.9 °F 14.7 °F 76% 30.18 in 10.0 mi West 9.2 mph - N/A   Clear
2:55 AM 24.4 °F 15.6 °F 15.8 °F 70% 30.19 in 10.0 mi West 8.1 mph - N/A   Clear
3:15 AM 26.4 °F 18.9 °F 16.0 °F 65% 30.19 in 10.0 mi West 6.9 mph - N/A   Clear
3:35 AM 24.1 °F 17.0 °F 15.6 °F 70% 30.19 in 10.0 mi West 5.8 mph - N/A   Clear
3:55 AM 26.6 °F 17.5 °F 16.7 °F 66% 30.18 in 10.0 mi West 9.2 mph - N/A   Clear
4:15 AM 29.5 °F 19.9 °F 16.7 °F 59% 30.18 in 10.0 mi West 11.5 mph - N/A   Clear
4:35 AM 27.1 °F 17.5 °F 15.8 °F 62% 30.17 in 10.0 mi West 10.4 mph - N/A   Clear
4:55 AM 24.8 °F 16.1 °F 15.4 °F 68% 30.17 in 10.0 mi West 8.1 mph - N/A   Clear
5:15 AM 23.9 °F 15.0 °F 14.9 °F 69% 30.17 in 10.0 mi West 8.1 mph - N/A   Clear
5:35 AM 24.8 °F 16.1 °F 15.6 °F 68% 30.16 in 10.0 mi WSW 8.1 mph - N/A   Clear
5:55 AM 25.7 °F 18.0 °F 16.2 °F 67% 30.16 in 10.0 mi WSW 6.9 mph - N/A   Clear
6:15 AM 23.5 °F 15.4 °F 15.6 °F 72% 30.16 in 10.0 mi WSW 6.9 mph - N/A   Clear
6:35 AM 23.0 °F 18.4 °F 15.4 °F 73% 30.16 in 10.0 mi West 3.5 mph - N/A   Clear
6:55 AM 23.7 °F 12.6 °F 15.3 °F 70% 30.16 in 10.0 mi WSW 11.5 mph - N/A   Clear
7:15 AM 29.5 °F 21.1 °F 16.0 °F 57% 30.16 in 10.0 mi WSW 9.2 mph - N/A   Clear
7:35 AM 32.2 °F 24.4 °F 14.4 °F 48% 30.16 in 10.0 mi SW 9.2 mph - N/A   Clear
7:55 AM 32.0 °F 24.2 °F 13.1 °F 46% 30.17 in 10.0 mi SW 9.2 mph - N/A   Clear
8:15 AM 29.8 °F 23.9 °F 13.1 °F 50% 30.17 in 10.0 mi SW 5.8 mph - N/A   Clear
8:35 AM 32.5 °F 29.3 °F 13.5 °F 45% 30.17 in 10.0 mi SW 3.5 mph - N/A   Clear
8:55 AM 29.7 °F - 14.9 °F 54% 30.18 in 10.0 mi Calm Calm - N/A   Clear
9:15 AM 37.2 °F 31.9 °F 12.9 °F 37% 30.17 in 10.0 mi WSW 6.9 mph - N/A   Clear
9:35 AM 41.9 °F 36.9 °F 14.0 °F 32% 30.17 in 10.0 mi SW 8.1 mph - N/A   Clear
9:55 AM 43.9 °F - 13.8 °F 30% 30.17 in 10.0 mi Calm Calm - N/A   Clear
10:15 AM 46.6 °F - 12.6 °F 25% 30.17 in 10.0 mi Calm Calm - N/A   Clear
10:35 AM 48.9 °F - 12.6 °F 23% 30.17 in 10.0 mi Calm Calm - N/A   Clear
10:55 AM 50.5 °F - 12.7 °F 22% 30.16 in 10.0 mi South 3.5 mph - N/A   Clear
11:15 AM 51.4 °F - 12.4 °F 21% 30.15 in 10.0 mi South 5.8 mph - N/A   Clear
11:35 AM 55.0 °F - 12.0 °F 18% 30.14 in 10.0 mi SW 9.2 mph - N/A   Clear
11:55 AM 57.6 °F - 6.6 °F 13% 30.13 in 10.0 mi WSW 6.9 mph - N/A   Clear
12:15 PM 57.4 °F - 7.7 °F 14% 30.13 in 10.0 mi SSW 6.9 mph - N/A   Clear
12:35 PM 54.9 °F - 9.1 °F 16% 30.12 in 10.0 mi South 5.8 mph - N/A   Clear
12:55 PM 57.6 °F - 8.2 °F 14% 30.11 in 10.0 mi SSW 4.6 mph - N/A   Clear
1:15 PM 58.1 °F - 7.0 °F 13% 30.09 in 10.0 mi SW 6.9 mph - N/A   Clear
1:35 PM 58.3 °F - 7.2 °F 13% 30.09 in 10.0 mi WSW 10.4 mph - N/A   Clear
1:55 PM 57.9 °F - 7.9 °F 14% 30.08 in 10.0 mi West 9.2 mph - N/A   Clear
2:15 PM 57.0 °F - 8.4 °F 14% 30.08 in 10.0 mi West 5.8 mph - N/A   Clear
2:35 PM 56.7 °F - 8.6 °F 15% 30.07 in 10.0 mi West 4.6 mph - N/A   Clear
2:55 PM 57.0 °F - 9.1 °F 15% 30.05 in 10.0 mi West 8.1 mph - N/A   Clear
3:15 PM 56.3 °F - 8.8 °F 15% 30.05 in 10.0 mi WSW 8.1 mph - N/A   Clear
3:35 PM 55.6 °F - 8.4 °F 15% 30.05 in 10.0 mi WSW 3.5 mph - N/A   Clear
3:55 PM 54.9 °F - 9.3 °F 16% 30.05 in 10.0 mi Calm Calm - N/A   Clear
4:15 PM 51.4 °F - 11.7 °F 20% 30.05 in 10.0 mi SSW 5.8 mph - N/A   Clear
4:35 PM 49.3 °F - 11.8 °F 22% 30.05 in 10.0 mi South 5.8 mph - N/A   Clear
4:55 PM 47.7 °F - 11.7 °F 23% 30.05 in 10.0 mi South 8.1 mph - N/A   Clear
5:15 PM 45.3 °F 40.1 °F 10.9 °F 25% 30.05 in 10.0 mi South 10.4 mph - N/A   Clear
5:35 PM 43.3 °F 37.7 °F 11.3 °F 27% 30.04 in 10.0 mi SSW 10.4 mph - N/A   Clear
5:55 PM 42.1 °F 36.6 °F 11.3 °F 29% 30.04 in 10.0 mi SSW 9.2 mph - N/A   Clear
6:15 PM 42.1 °F 38.4 °F 10.9 °F 28% 30.05 in 10.0 mi WSW 5.8 mph - N/A   Clear
6:35 PM 39.4 °F 33.8 °F 11.3 °F 32% 30.05 in 10.0 mi SW 8.1 mph - N/A   Clear
6:55 PM 37.6 °F 31.6 °F 11.5 °F 34% 30.04 in 10.0 mi SW 8.1 mph - N/A   Clear
7:15 PM 35.8 °F 30.1 °F 11.7 °F 37% 30.04 in 10.0 mi SW 6.9 mph - N/A   Clear
7:35 PM 32.9 °F 28.5 °F 11.3 °F 41% 30.03 in 10.0 mi WSW 4.6 mph - N/A   Clear
7:55 PM 32.9 °F - 11.1 °F 40% 30.03 in 10.0 mi Calm Calm - N/A   Clear
8:15 PM 31.1 °F 24.5 °F 11.3 °F 44% 30.03 in 10.0 mi WSW 6.9 mph - N/A   Clear
8:35 PM 30.6 °F 22.4 °F 11.5 °F 45% 30.03 in 10.0 mi WSW 9.2 mph - N/A   Clear
8:55 PM 31.8 °F 26.2 °F 11.8 °F 44% 30.03 in 10.0 mi West 5.8 mph - N/A   Clear
9:15 PM 28.8 °F 20.2 °F 12.6 °F 51% 30.03 in 10.0 mi West 9.2 mph - N/A   Clear
9:35 PM 29.1 °F 20.0 °F 12.7 °F 50% 30.03 in 10.0 mi WSW 10.4 mph - N/A   Clear
9:55 PM 29.7 °F 21.3 °F 12.7 °F 49% 30.02 in 10.0 mi West 9.2 mph - N/A   Clear
10:15 PM 29.1 °F 20.6 °F 12.2 °F 49% 30.02 in 10.0 mi West 9.2 mph - N/A   Clear
10:35 PM 30.4 °F 23.6 °F 11.8 °F 46% 30.03 in 10.0 mi WSW 6.9 mph - N/A   Clear
10:55 PM 30.0 °F 21.1 °F 12.2 °F 48% 30.03 in 10.0 mi WSW 10.4 mph - N/A   Clear
11:15 PM 27.5 °F 20.2 °F 11.8 °F 52% 30.02 in 10.0 mi WSW 6.9 mph - N/A   Clear
11:35 PM 28.4 °F 20.4 °F 11.5 °F 49% 30.02 in 10.0 mi West 8.1 mph - N/A   Clear
11:55 PM 27.9 °F 19.1 °F 11.3 °F 50% 30.02 in 10.0 mi West 9.2 mph - N/A   Clear